Regional Weather Roundup
Issued by NWS

Home | Current Version | Previous Version | Text Only | Print | Product List | Glossary Off
Versions: 1 2 3 4 5 6 7 8 9 10 11 12 13 14 15 16 17 18 19 20 21 22 23 24 25 26 27 28 29 30 31 32 33 34 35 36 37 38 39 40 41 42 43 44 45 46 47 48 49 50

000
ASUS43 KLOT 030208
RWRIL

ILLINOIS REGIONAL WEATHER ROUNDUP
NATIONAL WEATHER SERVICE CHICAGO/ROMEOVILLE IL
900 PM CDT TUE JUN 02 2015

NOTE: "FAIR" INDICATES FEW OR NO CLOUDS BELOW 12,000 FEET WITH NO
SIGNIFICANT WEATHER AND/OR OBSTRUCTIONS TO VISIBILITY.

* THESE STATIONS ARE NOT UNDER NWS QUALITY CONTROL. THEY ALSO MAY NOT
  REPORT WEATHER SUCH AS PRECIPITATION OR FOG.

ILZ001-002-007-009-015-016-024-030300-
NORTHWEST ILLINOIS

CITY           SKY/WX    TMP DP  RH WIND       PRES   REMARKS
MOLINE         MOCLDY    64  54  69 SE6       30.02F
STERLING*      MOCLDY    66  48  52 S3        30.05F
SAVANNA*       PTCLDY    64  49  59 SE5       30.03F
$$

ILZ003-004-008-010-011-017-018-030300-
NORTH CENTRAL ILLINOIS

CITY           SKY/WX    TMP DP  RH WIND       PRES   REMARKS
ROCKFORD       MOCLDY    65  45  48 SE6       30.06F
FREEPORT*      PTCLDY    61  47  60 S5        30.07S
ROCHELLE*      PTCLDY    64  47  53 SE7       30.06F
DE KALB*       PTCLDY    60  45  56 SE7       30.07F
PERU*          PTCLDY    67  45  44 SE8       30.06F
$$

ILZ005-006-012>014-019>023-030300-
NORTHEAST ILLINOIS

CITY           SKY/WX    TMP DP  RH WIND       PRES   REMARKS
CHICAGO-OHARE  MOCLDY    59  44  57 E9        30.09R
CHICAGO-MIDWAY MOCLDY    60  45  57 E10       30.09S
AURORA         PTCLDY    64  46  52 SE5       30.07S
LANSING*       CLEAR     56  43  62 NE5       30.10S
JOLIET*        PTCLDY    64  51  62 E9        30.08S
WAUKEGAN       PTCLDY    51  46  83 E5        30.09S
DUPAGE AIRPORT PTCLDY    63  48  58 E8        30.07R
KANKAKEE*      PTCLDY    62  55  76 CALM      30.09R
WHEELING       PTCLDY    57  44  62 E5        30.11S
MORRIS*        PTCLDY    65  49  56 SE5       30.06S
ROMEOVILLE*    PTCLDY    61  47  62 E9        30.08S
NORTHERLY ISL    N/A     53  47  79 NE3         N/A
$$

LMZ740>746-030300-
SOUTHERN LAKE MICHIGAN

STATION/POSITION SKY/WX   TEMP    WIND        PRES    VSBY  WAVE
                          AIR SEA DIR/SP/G                  HT/PER
                          (F)     (DEG/KT/KT) (MB)    (MI)  (FT/S)
SOUTHERN BUOY              45 38   40/  6/  8 1019.9F         0
HARRISON CRIB              53      50/  3/  5   N/A
BURNHAM HARBOR             54      50/  3/  5   N/A
CALUMET HARBOR             55      40/  5/  7   N/A
BURNS HARBOR                       60/  9/ 10 1019.6F
MICHIGAN CITY              56      30/ 10/ 12   N/A
MICHIGAN CITY 6N           56 56   80/  8/ 10   N/A           1/ 2
ST. JOSEPH                 55 55   70/ 10/ 12   N/A           1/ 2
$$

ILZ025>027-034>036-040-047-049-050-058-095>099-030300-
WEST-CENTRAL ILLINOIS

CITY           SKY/WX    TMP DP  RH WIND       PRES   REMARKS
QUINCY         PTCLDY    65  56  72 CALM      30.02F
GALESBURG*     MOCLDY    65  52  61 SE3       30.04F
MACOMB*        PTCLDY    64  56  73 SE3       30.06S
JACKSONVILLE*  PTCLDY    69  58  69 CALM      30.04S
PITTSFIELD*    PTCLDY    66  58  76 CALM      30.04F
$$

ILZ028>032-037-038-041>044-048-051>054-059>061-030300-
CENTRAL ILLINOIS

CITY           SKY/WX    TMP DP  RH WIND       PRES   REMARKS
PONTIAC        PTCLDY    64  56  76 E6        30.07S
BLOOMINGTON    PTCLDY    66  55  67 E5        30.07S
DECATUR        PTCLDY    65  57  75 CALM      30.05S
PEORIA         PTCLDY    67  53  61 E3        30.05S
LACON*         PTCLDY    62  52  71 CALM      30.05S
LINCOLN*       PTCLDY    66  58  73 CALM      30.03R
SPRINGFIELD    PTCLDY    67  58  72 SE3       30.04F
TAYLORVILLE    CLEAR     63  57  82 S3        30.05S
$$

ILZ033-039-045-046-055>057-062-063-030300-
EAST-CENTRAL ILLINOIS

CITY           SKY/WX    TMP DP  RH WIND       PRES   REMARKS
CHAMPAIGN      PTCLDY    63  55  75 E8        30.06S
DANVILLE*      CLEAR     63  54  73 E9        30.06S
RANTOUL*       CLEAR     66  55  66 E7        30.07S
MATTOON        PTCLDY    64  58  80 CALM      30.05S
PARIS*         CLEAR     65  55  71 NE6       30.07S
$$

ILZ079-100>102-030300-
SOUTHWEST ILLINOIS

CITY           SKY/WX    TMP DP  RH WIND       PRES   REMARKS
ALTON          PTCLDY    61  61 100 SE6       30.06S
BELLEVILLE     PTCLDY    61  59  93 SE6       30.05S
CAHOKIA*       PTCLDY    65  57  75 SE3       30.05S
SPARTA*        CLOUDY    62  57  83 CALM      30.08R
$$

ILZ064>066-069>071-074>076-080>082-084>086-088>090-092>094-030300-
SOUTH-CENTRAL ILLINOIS

CITY           SKY/WX    TMP DP  RH WIND       PRES   REMARKS
CARBONDALE     CLOUDY    63  58  83 CALM      30.07S
CAIRO*         CLOUDY    64  58  83 N3        30.06S
EFFINGHAM*     PTCLDY    63  56  80 CALM      30.07S
MARION         CLOUDY    63  57  82 CALM      30.08S
MT. VERNON     CLOUDY    63  54  72 SE3       30.08F
CENTRALIA*     CLOUDY    62  55  77 SE6       30.07S
SALEM*         PTCLDY    64  57  80 CALM      30.08S
$$

ILZ067-068-072-073-078-083-087-091-030300-
SOUTHEAST ILLINOIS

CITY           SKY/WX    TMP DP  RH WIND       PRES   REMARKS
LAWRENCEVILLE  CLEAR     64  58  80 W5        30.06S
FLORA*         CLEAR     60  57  89 SW5       30.07S
FAIRFIELD*     CLEAR     59  56  89 SW3       30.06F
HARRISBURG*    CLOUDY    63  58  83 CALM      30.08S
ROBINSON*      CLEAR     65  59  81 CALM      30.06S
CARMI*         CLEAR     59  54  82 CALM      30.06F
$$

ABBREVIATIONS USED IN REMARKS
   TC - TEMPERATURE IN CELSIUS
  WCI - WIND CHILL INDEX
   HX - HEAT INDEX
  VSB - VISIBILITY
$$




USA.gov is the U.S. government's official web portal to all federal, state and local government web resources and services.